Location: Cucq
(50.4773°N, 1.6202°E)
Time: 02:02:39
(UTC+00:00)

Cosmos 1603 - Pass Details

Date: 07 August 2020
Orbit: 831 x 860 km, 71.0° (Epoch: 25 September)

Event Time Altitude Azimuth Distance (km) Brightness Sun altitude
Rises 02:36:31 0° 331° (NNW) 3,448 7.2 -14.8°
Reaches altitude 10° 02:39:02 10° 335° (NNW) 2,507 6.5 -14.6°
Maximum altitude 02:44:44 60° 56° (NE) 977 4.3 -14.0°
Drops below altitude 10° 02:50:23 10° 136° (SE) 2,480 6.1 -13.4°
Sets 02:52:51 0° 140° (SE) 3,408 6.8 -13.1°
